Location: ?astrovice
(49.6513°N, 14.9287°E)
Time: 13:52:20
(UTC+00:00)

STARLINK-1234 - Visible Passes

Search period start: 06 August 2020 00:00
Search period end: 16 August 2020 00:00
Orbit: 549 x 550 km, 53.0° (Epoch: 05 August)

Date Brightness Start Highest point End Pass type
(mag) Time Alt. Az. Time Alt. Az. Time Alt. Az.
06 Aug 3.7 20:37:24 10° WNW 20:41:35 76° NNE 20:43:48 26° E visible
06 Aug 5.2 22:17:12 10° WNW 22:19:25 25° W 22:19:25 25° W visible
07 Aug 3.6 20:31:55 10° WNW 20:36:05 87° NNE 20:38:05 30° ESE visible
07 Aug 5.5 22:11:50 10° W 22:13:43 21° WSW 22:13:43 21° WSW visible
08 Aug 3.5 20:26:25 10° WNW 20:30:34 81° SSW 20:32:26 32° ESE visible
08 Aug 5.7 22:06:33 10° W 22:08:04 17° WSW 22:08:04 17° WSW visible
09 Aug 3.6 20:20:56 10° WNW 20:25:03 67° SSW 20:26:50 32° SE visible
09 Aug 6.0 22:01:24 10° W 22:02:27 14° WSW 22:02:27 14° WSW visible
10 Aug 3.9 20:15:28 10° WNW 20:19:31 55° SSW 20:21:16 30° SSE visible
10 Aug 6.2 21:56:32 10° WSW 21:56:54 11° WSW 21:56:54 11° WSW visible
11 Aug 4.2 20:10:01 10° WNW 20:13:58 44° SW 20:15:46 27° SSE visible
12 Aug 4.6 20:04:36 10° WNW 20:08:24 35° SW 20:10:18 23° S visible
13 Aug 5.0 19:59:16 10° W 20:02:49 28° SW 20:04:55 18° S visible
14 Aug 5.4 19:53:59 10° W 19:57:13 22° SW 19:59:35 14° S visible
15 Aug 5.8 19:48:50 10° W 19:51:35 17° SW 19:54:19 10° S visible
